SENTINEL-1A

Last updated on Thu Oct 30 2025 00:02:31 GMT+0000 (Coordinated Universal Time)

1 39634U 14016A 25302.55618924 .00000293 00000+0 71874-4 0 9993 2 39634 98.1820 308.4450 0001320 88.4941 271.6410 14.59197590616384
UTC large
Height (km)
Speed (km/s)
/
Latitude / Longitude
Inclination (degrees)
Orbital Period (minutes)
Azimuth
Elevation
Range (km)
Doppler Factor

Next 0 passes for location: London (51.5072 / 0.1276)

Sorry there are no passes over London.